Track VANGUARD 1 now! 10-day predictions VANGUARD 1 is classified as:
1 00005U 58002B 26249.49937457 .00000280 00000-0 36445-3 0 9996 2 00005 34.2440 63.3681 1837167 145.1802 228.4045 10.86046069452124